Hourly Data Report for July 09, 2021

KUGLUKTUK A
NUNAVUT
Current Station Operator: NAVCAN

67°49'00.000" N
115°08'38.000" W
22.60 m
2300903
71938
YCO

Download Data

Hourly Data (July 2021)
Hourly Data Report for July 9, 2021
TIME
LST
Temp Definition
°C
Dew Point Definition
°C
Rel Hum Definition
%
Precip. Amount Definition
mm

Wind Dir Definition
10's deg

Wind Spd Definition
km/h
Visibility Definition
km
Stn Press Definition
kPa
Hmdx Definition


Wind Chill Definition


Weather Definition


00:00 10.3 8.6 89   11 11 24.1 100.60     LegendNANA
01:00 9.4 8.3 93   36 3 24.1 100.66     LegendNANA
02:00 9.1 8.3 95   33 3 24.1 100.72     Clear
03:00 8.3 7.8 96   5 4 24.1 100.76     LegendNANA
04:00 7.9 7.3 96   12 4 24.1 100.78     LegendNANA
05:00 8.7 7.8 94   36 2 24.1 100.83     Mainly Clear
06:00 10.3 8.7 89   13 5 24.1 100.85     LegendNANA
07:00 12.6 9.4 81   11 9 24.1 100.85     LegendNANA
08:00 14.7 11.1 79   9 8 24.1 100.80     Mostly Cloudy
09:00 14.8 10.3 74   9 11 24.1 100.78     LegendNANA
10:00 15.9 10.2 69   8 18 24.1 100.75     LegendNANA
11:00 16.6 10.5 67   8 22 24.1 100.74     Mostly Cloudy
12:00 15.9 9.4 65   8 24 24.1 100.68     LegendNANA
13:00 14.6 8.6 67   8 26 24.1 100.64     LegendNANA
14:00 15.9 9.2 64   9 22 24.1 100.60     Mostly Cloudy
15:00 13.1 7.5 69   10 21 24.1 100.53     LegendNANA
16:00 13.8 7.3 64   9 29 24.1 100.42     LegendNANA
17:00 17.0 12.5 75   20 14 19.3 100.41     Rain Showers
18:00 11.6 9.4 86   10 16 24.1 100.27     LegendNANA
19:00 14.8 11.1 78   9 20 24.1 100.07     LegendNANA
20:00 15.8 13.0 83   16 19 16.1 100.11     Thunderstorms,Rain Showers
21:00 18.9 14.3 74   20 23 24.1 99.98     LegendNANA
22:00 18.4 13.7 74   20 26 24.1 99.96     LegendNANA
23:00 17.4 12.1 71   23 27 24.1 100.00     Clear

Notes on Data Quality.

Legend

  • E = Estimated
  • M = Missing
  • NA = Not Available*
  • [empty] = Indicates an unobserved value
Date modified: